{"data":{"norad_id":68228,"epoch":"2026-09-19T22:57:30.136320Z","epoch_age_seconds":98524,"freshness":"FRESH","line1":"1 68228U 26053X   26262.95659880  .00004951  00000+0  15567-3 0  9995","line2":"2 68228  97.2847 136.7957 0001695  79.3835 280.7599 15.33424671 29972","mean_motion":15.33424671,"eccentricity":0.0001695,"inclination_deg":97.2847,"raan_deg":136.7957,"arg_perigee_deg":79.3835,"mean_anomaly_deg":280.7599,"bstar":0.00015567,"rev_number":2997,"period_min":93.90744959522,"perigee_km":464.44364590582,"apogee_km":466.76367398954,"semimajor_km":6843.7406599477,"source":"CELESTRAK","updated_at":"2026-09-20T09:00:43.837464Z"}}